Weather in Pochinki

Russia / Republic of Mordovia     54°12′13″N   45°51′04″E
temp.,
°C
wind,
m/s
gust,
m/s
humid.,
%
clouds,
%
prec.,
mm/h
press.,
hPa
HPBL,
m
3 march, wed
wed300:00−5wnw499583 0.1 1004172
03:00−6wnw4109767 0.1 1005206
06:00−4nw7119390 0.1 1005655
09:00−6nw7119095 0.2 1007760
12:00−6nw71190100 0.1 1008739
15:00−5nw71089100 0.2 1009737
18:00−5wnw61189100 0.1 1010752
21:00−8w5129083 0.1 1011227
4 march, thu
thu400:00−7wsw6119456 0.1 1008335
03:00−4wsw7139378 0.3 1007673
06:00−3wsw81493100 0.3 1004776
09:00−2wsw81590100 0.5 1002704
12:000wsw101693100 0.4 10001019
15:000w91492100 0.7 9991013
18:00−1wsw71396100 0.6 1000689
21:00−1wnw3698100 2.6 1000304
5 march, fri
fri500:00−3ne1198100 2.3 99942
03:00−3ene0398100 4.6 998127
06:00−3nne3597100 2.5 998208
09:00−4n4696100 3.8 1000370
12:00−4nnw5791100 0.4 1003564
15:00−5nnw5787100 0.4 1007659
18:00−11nw339244 0.0 101028
21:00−15wnw119042 0.0 101320
6 march, sat
sat600:00−15ssw119248 0.0 101420
03:00−14sse129274 0.0 101420
06:00−15sse1292100 0.0 101320
09:00−11ssw229071 0.0 1012119
12:00−7w469285 0.1 1012472
15:00−7wnw688892 0.2 1011859
18:00−12nw479483 0.1 1012124
21:00−14nw489486 0.1 1014167
7 march, sun
sun700:00−17w479819 0.0 101593
03:00−17wsw489635 0.0 1015163
06:00−17sw499469 0.0 1014169
09:00−13sw7138770 0.0 1012387
12:00−8sw9158299 0.0 1008831
15:00−6sw101785100 0.0 10041112
18:00−6sw101992100 0.6 10021195
21:00−5sw111992100 1.6 9981137